Location: Johnson City
(36.3130°N, 82.3540°W)
Time: 21:36:43
(UTC-04:00)

Hubble Space Telescope - Pass Details

Date: 04 March 2019
Orbit: 537 x 540 km, 28.5° (Epoch: 24 March)

Event Time Altitude Azimuth Distance (km) Brightness Sun altitude
Exits shadow 06:22:04 - 225° (SW) 2,688 3.9 -7.7°
Rises 06:22:08 0° 225° (SW) 2,663 3.9 -7.6°
Reaches altitude 10° 06:25:02 10° 204° (SSW) 1,774 3.2 -7.1°
Maximum altitude 06:27:40 17° 164° (SSE) 1,405 3.2 -6.5°
Drops below altitude 10° 06:30:19 10° 124° (ESE) 1,777 4.5 -6.0°
Sets 06:33:13 0° 103° (ESE) 2,669 6.7 -5.4°
